This is the latest recevied weather packets stored in our database for station/object KG5VSR. If no packets are shown the sender has not sent any weather packets the latest 10 day(s).
| Time | Temp. | Humidity | Pressure | Rain* | Wind** | Luminosity | Snow |
|---|---|---|---|---|---|---|---|
| 1788014068 | 30° C | 67% | 1018.3 hPa | 0 mm | - | 212 W/m² | - |
| 1788012263 | 29.44° C | 68% | 1018.4 hPa | 0 mm | - | 245 W/m² | - |
| 1788010461 | 28.33° C | 71% | 1018.4 hPa | 0 mm | - | 140 W/m² | - |
| 1788008658 | 27.78° C | 74% | 1018.4 hPa | 0 mm | - | 60 W/m² | - |
| 1788006858 | 25.56° C | 80% | 1017.9 hPa | 0 mm | - | 26 W/m² | - |
| 1788005058 | 25° C | 82% | 1017.9 hPa | 0 mm | - | 3 W/m² | - |
| 1788003255 | 25.56° C | 79% | 1017.6 hPa | 0 mm | - | 0 W/m² | - |
| 1788001453 | 26.11° C | 78% | 1017.7 hPa | 0 mm | - | 0 W/m² | - |
| 1787999649 | 26.11° C | 77% | 1017.5 hPa | 0 mm | - | 0 W/m² | - |
| 1787997844 | 26.67° C | 74% | 1017.8 hPa | 0 mm | - | 0 W/m² | - |
| 1787996043 | 27.22° C | 73% | 1017.6 hPa | 0 mm | - | 0 W/m² | - |
| 1787994241 | 27.22° C | 72% | 1017.5 hPa | 0 mm | - | 0 W/m² | - |
| 1787992436 | 27.78° C | 69% | 1017.2 hPa | 0 mm | - | 0 W/m² | - |
| 1787990635 | 27.78° C | 69% | 1017 hPa | 0 mm | - | 0 W/m² | - |
| 1787988832 | 28.33° C | 68% | 1016.9 hPa | 0 mm | - | 0 W/m² | - |
| 1787987027 | 28.89° C | 64% | 1017.3 hPa | 0 mm | - | 0 W/m² | - |
| 1787985227 | 30° C | 60% | 1017.3 hPa | 0 mm | - | 0 W/m² | - |
| 1787983421 | 30.56° C | 56% | 1017.2 hPa | 0 mm | - | 0 W/m² | - |
| 1787981622 | 31.11° C | 53% | 1017.5 hPa | 0 mm | - | 0 W/m² | - |
| 1787979818 | 32.22° C | 51% | 1017 hPa | 0 mm | - | 0 W/m² | - |
| 1787978018 | 32.78° C | 50% | 1016.6 hPa | 0 mm | - | 0 W/m² | - |
| 1787976218 | 32.78° C | 51% | 1016.7 hPa | 0 mm | - | 0 W/m² | - |
| 1787974414 | 32.78° C | 49% | 1016.5 hPa | 0 mm | - | 0 W/m² | - |
| 1787972610 | 33.33° C | 47% | 1016.1 hPa | 0 mm | - | 0 W/m² | - |
| 1787970806 | 33.89° C | 46% | 1015.9 hPa | 0 mm | - | 0 W/m² | - |
* Rain latest hour (hover to see other rain measurements)
** Current wind speed in m/s (hover to see current wind gust speed)